Theta_e
340 342 344 347 348 347 348 349 351 350 352 354 354 354 355 356 357 359 360 361 362 362 363 364 363 362 360 360 361 364 364 363 365 363 363 362 362 361 361 359 359 360 358 358 362 361 365 368 366 367 369 369 369 369 371 371 370 368 369 371 369 366 367
337 338 341 344 346 347 349 351 352 351 352 353 354 356 355 357 358 358 360 362 363 363 363 364 363 362 361 361 362 364 365 364 365 364 364 363 363 362 363 363 361 362 362 361 361 365 366 367 367 368 368 370 369 370 370 372 371 370 367 370 368 366 367
335 336 339 342 344 346 349 350 351 351 353 353 354 355 355 357 358 360 360 361 362 364 364 364 364 362 362 363 363 364 364 365 363 363 362 360 362 359 363 364 363 361 362 363 364 364 368 368 370 369 368 368 366 369 370 371 372 369 369 370 369 365 368
331 335 337 342 346 348 349 350 351 351 352 353 354 354 356 358 360 361 361 362 362 363 363 364 363 362 363 363 363 364 364 364 363 363 362 361 362 362 362 364 366 363 362 362 362 363 363 368 366 368 369 367 367 366 369 368 367 368 368 370 366 367 369
331 334 336 341 343 346 347 348 350 351 351 352 354 357 357 358 359 359 361 362 362 362 363 363 361 363 363 364 363 364 364 364 363 364 365 363 365 365 363 362 363 363 361 364 365 367 367 367 365 367 368 369 365 366 367 368 366 368 368 369 367 365 365
331 333 335 339 343 345 346 348 349 350 350 351 353 354 356 357 357 357 359 361 362 363 364 364 363 364 363 364 364 364 364 365 365 366 366 366 365 364 364 363 362 363 360 363 364 365 367 366 365 364 364 364 362 361 363 365 364 365 367 368 367 365 363
330 334 337 339 342 344 346 347 348 349 351 351 353 355 355 355 355 356 358 360 361 361 362 362 363 363 364 364 364 365 365 364 365 365 366 366 365 365 365 365 365 364 362 365 364 365 365 366 366 365 365 362 363 361 362 365 364 365 366 368 367 366 367
330 334 339 341 342 343 345 347 348 349 351 351 351 352 353 353 354 356 357 358 359 359 360 360 362 363 365 365 365 365 365 366 365 365 366 366 365 365 364 365 365 365 365 362 365 365 364 366 365 365 365 364 364 365 364 366 368 364 364 366 366 366 364
330 337 340 340 342 343 345 347 348 348 350 350 350 351 352 353 353 354 356 357 358 357 358 359 361 363 365 365 366 366 366 365 364 365 367 365 363 362 363 364 365 365 364 362 363 366 364 364 364 366 368 366 365 367 367 368 368 367 365 365 367 366 363
328 335 342 341 342 342 345 347 349 350 350 349 350 352 352 352 353 354 355 355 356 356 357 359 360 361 364 365 365 366 366 367 366 365 364 362 362 362 362 362 363 365 365 363 362 363 366 365 365 367 369 367 367 367 369 368 367 367 367 367 368 367 367
332 339 343 342 343 344 346 346 348 349 349 351 351 350 352 352 352 353 353 354 354 355 357 358 360 360 363 364 363 364 365 365 364 364 363 362 361 361 362 361 362 364 364 364 361 362 365 366 366 367 369 366 367 367 368 368 369 368 366 366 368 368 366
334 337 342 344 344 344 345 348 350 351 352 352 350 350 353 353 352 352 353 354 355 355 356 358 359 360 361 362 361 363 364 365 364 364 363 362 360 360 361 361 361 363 364 364 362 362 363 365 365 365 368 370 368 368 369 370 369 369 368 364 366 367 367
332 337 340 340 342 343 348 350 350 351 353 351 350 350 351 352 351 351 353 354 354 356 357 358 359 360 361 362 360 362 363 365 364 363 362 363 362 361 361 361 360 361 362 363 362 361 360 363 366 366 367 369 369 367 369 370 368 369 369 367 366 366 368
338 328 336 340 342 343 345 348 350 352 352 351 350 351 351 352 351 352 353 353 354 355 356 357 359 359 360 361 361 363 363 365 366 364 364 364 365 364 362 361 361 362 363 364 363 360 360 360 363 365 366 367 368 368 369 370 369 369 370 369 366 364 366
323 322 327 335 343 345 346 346 351 353 353 351 351 350 351 351 352 353 354 355 355 355 356 358 358 359 360 361 361 363 365 366 366 367 365 364 365 365 364 363 363 363 364 365 364 361 360 361 362 364 365 366 367 368 367 366 368 368 368 368 368 366 364
327 326 325 324 339 343 348 349 351 354 355 354 351 351 350 351 352 352 352 352 353 355 356 358 359 359 360 360 362 364 366 367 368 367 367 365 365 366 365 364 364 362 363 364 364 364 364 364 363 362 364 365 367 368 367 366 367 362 347 353 367 367 363
335 338 341 341 338 337 347 350 351 355 356 355 352 351 350 351 352 352 351 352 353 354 356 357 359 359 359 361 363 365 367 367 367 367 366 366 366 366 366 364 364 364 365 365 365 365 366 364 363 362 362 364 365 366 365 366 365 346 336 338 344 363 367
338 344 345 348 352 350 341 344 349 352 354 353 352 351 351 353 352 352 351 352 353 353 355 356 358 359 361 362 364 366 367 367 368 367 367 367 367 367 367 365 365 365 366 365 365 366 365 364 364 364 362 362 364 364 365 366 352 333 333 335 335 345 365
341 343 345 349 351 353 352 344 340 351 352 352 351 351 351 353 352 352 352 354 354 355 354 355 357 360 362 363 364 367 368 368 367 367 367 367 367 368 367 367 366 365 365 364 366 366 366 367 365 365 364 363 364 363 363 365 344 330 331 332 332 334 348
343 345 346 349 351 351 354 355 348 341 351 353 353 351 352 355 352 353 354 354 356 355 355 357 358 361 361 363 365 368 368 367 367 367 367 368 367 368 367 366 365 364 364 365 366 366 366 365 366 366 367 365 365 365 365 366 343 329 327 328 329 330 339
343 345 347 349 351 352 356 357 355 345 344 350 350 352 352 353 353 354 354 355 354 355 356 357 360 362 363 363 366 367 367 367 367 367 367 368 367 367 367 366 366 365 364 363 364 365 365 365 365 366 367 365 364 364 363 365 334 326 324 324 324 327 332
342 344 346 349 352 354 356 355 352 345 340 350 351 349 350 352 353 353 353 354 353 354 356 358 360 361 363 363 365 365 366 366 366 367 367 367 366 366 365 366 367 366 365 364 363 365 366 366 366 366 366 366 365 363 363 364 329 324 323 322 323 324 350
338 344 348 351 353 354 356 354 351 346 345 348 351 348 350 353 353 353 352 352 353 355 354 356 359 361 363 362 362 363 365 365 365 365 366 366 365 365 364 365 366 366 367 364 363 362 363 365 364 366 365 365 366 365 364 365 340 321 320 321 320 327 357
337 346 349 351 355 355 352 348 347 348 346 349 350 349 350 353 352 353 352 351 352 353 354 356 358 361 363 362 363 363 365 365 365 365 365 365 364 364 364 365 366 366 367 364 361 360 362 364 365 366 366 364 365 364 365 365 343 318 318 319 317 335 359
336 347 350 352 353 350 345 347 349 348 350 352 348 349 353 354 352 351 352 353 352 354 354 356 359 361 362 362 363 364 365 365 366 365 364 364 364 364 364 365 365 366 366 364 363 361 364 365 365 364 366 364 364 357 361 365 346 317 318 317 316 337 362
339 348 350 353 355 351 348 352 352 348 349 349 350 351 353 352 352 353 353 353 353 353 355 358 360 364 365 364 364 365 365 366 367 366 364 365 365 365 365 366 365 365 364 364 363 362 362 362 364 364 364 364 363 363 363 363 366 340 316 316 315 322 360
343 348 350 352 353 356 350 351 350 349 349 350 353 352 353 352 353 354 356 356 355 355 356 360 364 366 366 365 363 363 364 365 366 365 364 366 365 365 365 365 364 363 365 363 362 363 362 361 363 362 364 364 364 364 364 363 364 356 314 315 314 317 332
341 347 350 354 355 354 351 350 350 350 348 353 353 353 354 355 355 355 357 356 355 357 359 362 365 366 366 364 363 363 363 363 366 366 364 366 367 366 365 366 366 365 365 363 364 364 363 364 363 362 362 364 364 365 366 365 355 372 320 316 313 315 319
336 344 347 349 353 355 352 349 348 347 350 352 353 353 355 356 356 358 358 356 359 360 362 363 365 366 366 365 362 364 364 365 365 365 363 364 366 366 365 366 366 366 366 366 364 364 363 364 364 363 362 362 364 365 366 369 366 341 343 316 314 312 315
335 343 347 349 349 354 353 354 350 349 351 354 356 357 357 358 357 359 359 359 363 362 362 366 367 368 365 364 363 363 364 364 365 366 365 365 366 366 366 365 365 366 365 365 364 363 362 362 362 362 361 360 361 363 363 366 364 346 336 331 313 313 313
333 338 344 347 350 352 355 355 357 351 352 356 358 358 359 360 360 362 360 363 364 362 364 367 367 365 364 363 363 364 363 364 365 365 364 364 365 365 365 366 366 363 365 365 363 363 362 362 361 359 359 358 358 360 361 362 363 367 346 328 318 314 312
333 337 343 348 351 353 353 355 358 359 356 356 358 359 361 362 364 363 362 365 366 365 367 367 365 365 364 363 363 363 363 363 363 364 364 364 365 366 366 366 364 363 364 362 360 361 360 359 358 357 359 358 360 360 361 364 364 365 364 338 328 321 314
331 336 341 344 347 352 354 353 354 356 357 358 361 362 362 363 363 365 365 367 367 364 368 367 366 363 363 363 362 363 363 362 361 361 364 365 365 366 367 366 366 365 362 363 361 361 359 360 359 358 357 359 360 362 363 363 363 365 364 360 352 347 336
330 334 339 344 346 347 350 352 352 353 355 358 361 360 360 361 362 364 366 368 366 366 368 365 365 363 363 362 362 361 362 361 360 361 362 363 363 363 365 365 365 364 362 363 362 360 360 360 358 357 359 359 360 362 361 362 363 364 364 365 362 359 356
329 332 336 340 343 345 346 348 350 352 352 354 359 361 362 363 365 367 369 366 365 366 365 363 365 363 364 363 363 362 364 363 363 361 361 363 365 364 366 365 363 364 365 367 367 365 363 363 361 361 362 362 363 361 362 364 364 365 344 368 343 359 362
329 330 333 337 340 342 345 347 349 351 353 355 357 358 359 362 364 366 367 368 366 367 365 365 363 362 363 363 363 363 363 363 362 362 361 363 364 364 359 318 307 330 370 368 351 340 336 339 364 367 366 364 366 370 366 367 368 342 328 328 324 328 330
328 329 330 333 335 337 341 345 346 347 349 352 357 358 359 360 362 364 367 369 370 369 367 367 363 360 361 362 361 360 364 363 363 365 365 365 366 367 365 359 344 300 296 308 317 328 327 322 319 315 317 351 372 366 334 321 316 315 315 315 315 316 318
328 327 330 332 333 335 338 342 344 345 346 349 352 356 359 358 360 363 364 368 370 369 368 367 362 358 359 361 361 363 366 366 366 367 365 365 368 369 366 362 359 354 307 297 301 300 300 301 302 303 308 310 320 349 374 326 307 305 309 311 310 310 306
Wind_Speed
15 16 17 16 17 18 19 20 22 21 21 21 20 22 22 20 19 18 18 19 20 20 20 19 18 16 17 16 18 15 14 13 12 12 11 10 10 10 10 10 10 10 10 9 9 9 8 9 8 9 8 8 8 8 7 7 7 6 6 5 5 5 5
14 15 16 17 17 19 20 20 21 20 21 21 21 23 21 22 20 19 18 19 21 21 21 19 19 17 17 17 16 17 16 15 13 11 11 10 9 9 10 10 10 10 10 9 8 8 9 9 9 9 8 8 9 8 8 7 7 7 6 6 6 5 5
15 15 15 16 17 18 20 20 21 21 22 21 22 22 23 22 21 21 20 20 21 20 19 20 20 18 17 17 16 17 17 15 14 14 14 12 13 13 11 10 10 10 10 10 8 8 9 9 9 9 9 9 9 9 8 8 8 8 7 6 6 6 6
16 16 16 18 19 19 19 21 23 22 20 22 23 24 24 23 22 20 20 21 22 21 22 21 20 19 18 18 17 18 18 16 15 14 14 13 13 12 11 11 10 10 9 10 10 9 8 9 10 10 10 9 9 9 9 9 9 8 8 7 6 6 6
18 18 16 16 17 17 18 20 21 22 24 25 24 22 23 23 22 21 20 21 22 23 23 22 19 18 16 18 15 15 16 17 16 15 14 13 12 12 12 13 11 11 10 10 10 9 9 9 10 10 10 10 10 9 10 9 9 8 8 8 7 6 6
16 16 15 16 17 18 20 21 23 25 24 24 24 24 23 25 22 24 22 22 21 21 20 20 21 19 19 18 16 15 15 16 16 15 14 13 13 13 13 13 12 12 12 11 10 10 11 10 10 10 10 10 11 11 10 10 10 10 9 8 8 7 7
14 16 16 16 16 18 20 21 22 23 23 22 21 20 20 21 23 23 21 21 22 23 23 23 22 21 18 16 17 16 17 17 17 17 14 15 14 13 13 13 12 12 11 11 11 10 11 11 11 10 10 11 10 11 10 10 10 9 8 8 9 8 7
14 15 17 17 18 19 19 21 21 21 20 18 19 21 23 22 21 22 23 22 22 21 21 22 21 20 19 18 17 19 18 18 16 16 15 16 15 14 13 13 12 12 11 12 12 11 11 12 11 11 11 11 11 10 10 10 10 10 9 9 9 10 8
13 14 15 17 18 18 18 19 19 19 21 22 22 22 23 22 22 23 24 23 22 22 23 22 21 20 18 18 18 19 18 17 16 16 18 17 15 16 15 14 13 13 13 12 12 12 12 11 11 11 11 11 10 10 10 10 10 10 10 10 10 10 10
14 14 15 16 15 15 14 15 16 16 19 20 20 20 22 21 21 21 21 22 21 24 24 22 20 20 19 19 19 19 18 18 17 19 18 18 16 17 17 15 14 13 13 13 12 12 12 12 12 11 11 11 11 11 11 11 11 10 11 11 11 11 10
3 8 9 11 11 11 12 14 17 18 19 19 20 20 20 21 21 21 22 22 22 22 23 21 20 20 20 20 21 20 19 19 18 18 19 18 16 18 18 16 14 13 15 14 14 13 12 11 12 12 12 12 12 12 12 11 11 11 11 10 10 11 10
6 6 7 8 9 11 14 15 16 16 17 17 19 19 19 19 21 21 21 22 21 21 21 21 20 21 20 20 20 19 21 19 18 19 20 19 18 18 18 16 15 15 14 14 15 14 13 13 12 12 13 12 12 12 12 11 11 11 11 11 11 10 10
2 4 8 11 13 13 12 12 15 18 18 19 20 20 19 20 20 20 19 21 21 19 20 20 19 19 20 20 21 19 20 19 19 18 18 18 17 16 16 16 16 16 15 15 15 15 14 14 14 12 13 13 12 12 12 12 12 11 11 11 11 10 10
5 6 6 7 10 12 15 16 17 18 19 20 19 20 19 19 20 20 19 20 20 20 19 18 19 20 20 19 19 19 19 19 18 18 17 16 15 15 16 16 16 15 14 14 15 15 15 15 15 13 13 13 13 12 12 12 12 12 12 11 11 11 11
8 7 5 9 11 13 16 17 16 18 19 20 21 21 21 19 19 18 18 19 19 19 21 19 19 20 20 19 19 18 18 17 16 16 16 16 15 15 15 15 15 14 14 13 14 13 15 15 14 14 13 13 12 12 12 12 12 11 11 12 12 11 11
10 9 8 5 10 14 16 17 18 19 20 20 21 21 21 19 19 20 21 21 21 20 20 19 19 19 19 20 18 17 17 17 15 15 16 16 16 16 15 15 15 15 15 14 14 13 13 13 14 14 14 13 13 13 12 11 10 11 15 13 11 11 10
11 11 10 7 6 8 13 16 17 17 18 20 22 22 21 19 20 20 21 20 21 20 20 20 19 20 20 19 18 17 17 16 16 15 16 16 15 15 16 15 14 14 14 14 14 13 13 13 14 14 14 14 13 14 12 11 11 14 15 15 13 11 10
14 13 13 12 9 8 9 12 16 17 20 21 23 23 21 19 19 20 21 21 22 22 21 20 20 20 18 18 17 17 18 16 17 16 16 16 16 16 16 15 14 14 14 14 14 13 13 14 14 14 14 13 14 14 13 12 12 15 17 17 16 13 10
15 15 15 14 13 12 11 13 14 17 20 21 21 22 24 23 21 21 21 21 21 19 20 21 20 19 18 17 18 17 17 16 17 17 16 16 16 15 15 15 15 15 15 15 14 13 13 13 14 14 13 13 13 14 14 13 13 16 18 18 17 17 14
16 16 16 16 15 15 14 12 13 14 19 20 22 24 24 22 22 20 19 19 18 20 19 19 18 18 18 18 18 17 17 17 17 17 17 16 16 15 15 16 16 16 15 13 13 13 13 14 15 13 13 13 13 13 12 13 13 18 18 18 18 18 15
16 17 17 17 17 17 15 14 15 17 17 20 21 20 19 19 19 17 18 18 20 20 18 19 18 17 17 18 17 16 16 17 17 17 16 16 16 15 15 16 15 16 14 13 14 14 14 14 14 13 14 14 14 13 12 11 13 18 19 19 19 19 15
17 18 19 18 18 19 17 17 17 18 18 17 18 19 20 21 20 20 20 19 19 18 19 18 17 17 17 17 17 18 18 18 17 16 16 16 16 16 16 15 15 15 14 13 13 12 12 12 13 14 14 14 14 14 14 13 16 17 19 19 19 18 11
19 20 20 20 19 20 18 17 17 17 15 15 17 18 19 19 20 19 19 19 19 19 19 18 18 18 18 18 19 19 18 18 17 17 17 17 17 17 16 16 15 14 13 13 13 13 13 13 13 13 14 15 15 15 13 13 14 19 19 19 19 14 11
21 20 19 19 19 18 17 15 14 14 14 17 19 20 19 20 20 19 20 20 19 20 19 20 20 18 18 18 19 18 18 17 17 17 17 16 17 17 16 15 14 14 13 14 14 14 14 13 12 13 14 15 15 15 14 14 13 20 19 20 19 17 13
22 20 19 18 18 17 15 11 11 13 14 16 19 19 19 21 22 21 20 20 20 20 19 19 19 18 19 19 18 17 17 17 17 17 17 17 17 16 16 16 15 14 13 13 13 13 12 12 12 12 12 14 15 14 16 14 12 20 20 20 21 17 12
22 19 17 17 16 14 12 9 10 12 16 18 18 19 20 21 20 20 19 20 19 19 20 19 19 18 17 16 16 15 15 15 16 16 17 17 16 15 14 13 13 14 14 13 12 12 12 12 11 13 12 12 14 13 15 15 10 16 21 21 21 22 14
20 17 16 16 12 13 6 7 10 13 15 15 16 18 19 19 19 18 17 17 18 20 19 17 15 15 15 15 16 16 17 15 16 17 17 15 15 14 14 14 14 14 13 13 12 12 12 13 12 12 12 12 13 13 14 13 14 13 22 21 22 23 18
19 16 12 11 10 8 7 7 11 13 15 14 17 17 17 17 17 17 17 17 19 19 15 14 14 14 15 16 16 16 16 16 14 15 14 14 13 14 14 13 13 12 13 12 12 13 13 13 12 12 12 12 12 12 13 12 15 10 19 22 22 22 24
17 16 14 10 8 6 5 6 10 13 13 14 17 16 16 18 18 16 17 18 18 15 15 15 14 15 16 16 16 15 15 15 15 14 12 13 14 14 14 12 13 13 12 12 12 13 13 13 12 11 11 11 10 11 11 11 10 14 13 20 22 23 23
17 16 14 13 8 7 5 4 7 10 12 13 14 14 15 16 16 16 17 18 14 14 14 14 15 15 15 15 16 15 15 15 15 14 13 14 13 13 13 13 13 12 12 12 12 11 12 12 12 11 12 11 11 10 11 12 12 12 16 16 22 21 23
16 14 13 12 11 6 4 3 3 7 10 11 14 12 13 14 15 15 17 14 14 15 15 15 15 15 15 15 15 15 14 14 14 14 14 14 14 14 13 14 13 12 13 13 13 12 11 12 11 13 12 12 13 11 12 13 13 11 15 21 21 21 21
16 15 15 14 13 9 4 1 2 4 6 8 10 10 10 11 12 13 12 12 12 14 13 14 14 14 15 14 14 15 14 14 14 15 14 15 13 13 12 13 13 12 12 13 13 13 13 12 13 13 12 12 12 12 12 11 11 11 10 14 17 17 19
16 15 15 15 15 14 9 3 2 4 6 6 7 7 8 9 9 9 11 10 11 13 11 13 13 13 13 13 14 14 13 14 13 13 13 14 12 12 12 12 13 13 13 13 12 13 12 12 12 13 13 12 12 12 11 11 10 10 9 10 9 9 10
15 14 15 14 14 16 13 9 3 2 4 5 4 5 6 7 7 9 10 10 12 12 11 11 12 13 13 14 13 12 13 13 13 13 12 13 13 12 12 13 13 13 13 13 13 13 13 12 12 13 13 12 12 12 12 12 12 11 11 10 10 11 11
15 15 13 14 14 13 10 10 10 6 3 4 4 5 5 5 5 7 9 9 10 11 11 11 12 12 13 12 11 11 11 12 12 13 12 12 13 12 12 12 14 13 12 13 13 13 13 12 12 11 12 12 12 12 12 12 12 11 10 11 10 10 11
16 16 15 14 11 13 12 13 11 11 10 7 5 5 5 5 4 5 6 7 8 10 11 11 11 12 12 12 11 11 12 11 12 12 12 11 12 12 5 12 12 5 5 10 13 13 12 9 10 9 10 12 10 9 10 10 8 5 15 11 11 10 9
15 13 13 14 14 15 14 12 13 14 13 11 9 9 7 5 4 3 3 5 6 9 10 11 11 11 11 11 12 12 12 11 11 11 11 11 10 11 9 6 4 11 13 11 10 3 5 2 5 10 12 6 5 4 11 13 11 12 12 13 13 13 9
14 12 13 13 14 15 15 13 14 12 12 11 10 9 9 9 8 5 3 3 6 7 8 10 10 10 10 10 10 10 11 10 11 11 11 11 10 11 10 10 9 4 11 13 10 11 11 10 11 12 11 11 8 3 3 9 11 9 9 9 10 10 11
Wind_Direction
191 191 196 194 194 195 194 192 190 190 189 188 189 190 190 189 189 186 187 184 183 182 182 183 185 187 193 201 206 201 196 197 197 200 202 204 204 201 198 199 199 202 207 208 204 206 203 210 212 210 207 209 217 215 219 219 219 220 222 222 225 227 217
196 196 197 194 195 197 196 192 190 190 190 189 189 189 190 189 188 188 187 185 184 182 181 183 185 188 192 198 201 203 200 196 197 199 201 201 201 201 200 200 202 199 205 213 206 203 201 201 207 206 209 207 215 218 217 219 220 220 221 215 222 222 221
203 202 198 195 196 198 195 191 191 193 191 190 188 188 190 189 188 188 185 184 184 183 181 183 185 188 192 194 195 198 200 194 196 199 199 199 198 200 198 201 202 203 205 204 208 201 198 200 200 206 209 212 214 212 217 220 221 220 219 216 219 218 220
209 205 201 197 197 197 193 192 192 193 194 193 192 190 187 186 186 187 187 185 183 182 183 183 183 187 191 193 195 199 198 195 200 203 202 201 199 199 199 199 202 207 202 204 203 204 204 202 201 204 206 214 217 215 213 218 220 219 218 216 222 219 220
207 205 203 197 196 194 195 194 192 193 194 195 193 190 188 185 185 186 188 188 186 186 184 183 185 187 191 193 196 197 193 194 199 203 204 201 199 197 200 201 199 205 204 201 200 198 203 202 203 203 205 211 216 214 216 216 219 217 218 215 225 223 220
205 203 200 196 194 195 196 195 194 194 195 194 191 189 187 186 187 188 188 187 189 187 184 182 184 184 189 191 192 193 192 195 198 199 200 198 195 198 200 203 202 202 201 201 197 200 198 202 206 206 211 211 215 219 216 217 218 217 216 217 221 226 227
207 201 198 197 195 195 198 197 197 196 195 194 192 190 191 188 189 188 187 188 188 186 186 185 185 185 188 188 193 190 191 192 195 197 198 198 195 198 199 200 202 201 203 196 203 199 199 202 207 210 211 216 215 219 220 216 218 216 215 216 218 221 226
211 201 198 197 196 198 197 197 198 195 191 191 191 189 191 192 190 188 189 189 188 188 189 187 185 186 184 187 188 191 191 190 191 194 197 197 193 198 199 199 199 199 199 200 199 201 202 202 205 207 209 213 214 216 219 216 217 221 216 218 219 218 216
211 204 203 203 202 200 197 195 194 190 188 190 191 191 191 192 190 191 190 188 188 190 191 190 188 184 183 185 187 189 190 191 191 191 195 195 193 198 198 197 198 197 198 201 198 198 205 202 205 201 204 210 212 211 214 215 215 219 222 220 218 218 221
209 202 206 211 210 206 196 190 187 186 187 190 192 191 191 193 194 194 191 190 190 192 189 189 187 185 184 185 187 188 186 187 189 191 194 195 196 198 200 198 197 195 197 199 201 195 199 203 201 199 200 205 208 209 210 211 215 217 219 218 218 220 219
283 202 211 218 217 208 195 189 185 188 187 188 190 191 191 192 194 193 193 192 192 192 189 188 187 185 185 186 186 186 188 189 191 193 195 197 198 199 199 201 197 194 197 197 203 199 194 198 200 199 199 204 205 207 208 211 212 214 219 217 217 220 221
184 191 201 213 214 201 198 192 188 187 185 187 190 192 191 192 194 194 194 193 192 188 187 187 187 186 185 187 187 187 189 189 192 195 197 199 200 200 200 199 199 194 195 198 200 202 198 194 197 199 201 205 206 206 207 208 210 211 215 218 216 216 221
251 214 208 204 195 198 197 191 190 189 188 189 192 192 192 193 193 195 193 193 192 188 187 186 186 185 185 187 188 187 189 189 192 194 196 197 200 200 198 200 199 198 195 196 199 200 202 196 197 199 203 203 206 207 205 205 208 209 209 215 218 217 218
265 239 211 198 199 196 194 195 191 189 190 190 191 193 193 192 193 193 192 191 191 189 187 185 186 186 186 187 188 187 187 188 189 192 194 194 196 200 199 199 199 198 196 195 198 201 202 202 198 200 203 204 206 207 206 204 207 206 207 209 213 215 216
309 297 238 198 197 193 195 194 193 193 191 191 192 193 193 192 192 191 191 191 190 190 189 185 185 185 185 186 188 186 185 183 185 189 190 192 192 196 198 198 197 195 195 194 199 202 203 205 203 201 204 204 205 205 206 208 206 206 203 204 207 213 217
309 306 308 284 205 202 197 200 197 195 194 192 193 193 193 191 191 190 190 190 190 190 188 184 185 185 185 187 187 183 181 180 181 184 186 189 190 192 194 195 195 194 195 195 200 200 203 205 207 206 204 204 203 205 207 210 210 200 196 198 203 206 215
322 322 322 316 309 229 214 208 205 200 197 195 195 195 194 192 191 191 190 188 189 190 188 185 183 185 185 185 183 178 176 177 180 181 185 187 188 188 191 193 194 194 193 196 198 201 199 204 206 210 208 206 205 205 208 209 211 185 182 190 201 208 209
320 320 317 317 310 304 279 233 212 204 199 198 196 195 194 192 189 188 191 189 189 189 187 185 184 185 185 182 178 176 175 178 178 181 183 184 186 186 189 191 193 193 192 195 196 199 200 202 205 209 211 209 209 210 210 213 202 173 180 185 190 202 212
317 314 315 313 307 295 274 264 245 215 205 201 198 195 195 191 188 189 190 188 187 185 186 186 183 182 182 180 177 177 176 176 179 181 181 183 183 183 185 189 192 193 194 196 196 197 200 202 204 207 210 213 212 216 214 218 183 173 180 185 189 196 211
314 313 309 306 304 296 291 279 264 244 217 205 199 198 195 191 189 189 186 184 181 185 187 184 183 181 181 179 178 177 177 178 179 181 182 181 181 183 186 189 193 196 196 197 196 198 200 203 205 206 207 212 215 217 222 223 174 177 179 185 188 194 201
313 312 305 301 296 292 288 282 270 253 234 216 206 198 191 191 189 179 180 180 183 185 184 182 183 180 180 179 179 178 178 180 182 182 181 181 183 185 189 191 194 197 199 199 199 198 200 203 203 205 206 209 214 217 219 228 173 177 179 184 188 192 197
312 305 299 296 295 291 284 276 266 251 235 219 206 197 193 190 186 181 182 182 182 182 183 181 182 180 179 181 181 182 182 182 182 181 181 183 185 189 192 193 194 196 199 203 202 200 200 203 206 205 207 210 213 218 219 219 174 178 180 184 189 185 195
309 297 294 292 290 287 283 271 257 248 230 212 203 197 194 188 183 181 180 181 181 181 182 181 182 181 180 184 184 185 184 183 182 183 185 186 188 192 194 193 194 197 197 201 203 200 201 204 206 208 209 210 210 215 218 224 176 176 180 184 183 175 202
307 297 293 295 294 287 276 262 249 235 222 203 198 194 188 184 180 177 179 181 180 181 182 183 184 182 181 184 186 185 184 184 183 184 186 188 192 193 194 194 194 195 194 199 203 205 203 204 207 208 211 211 213 211 215 225 180 176 177 181 175 183 200
302 297 297 297 296 289 276 250 233 226 209 198 193 189 182 180 178 177 177 179 180 182 184 185 185 184 183 185 185 183 182 182 183 185 187 190 193 193 193 194 194 195 194 201 204 210 207 206 208 210 211 213 216 206 215 225 194 174 176 179 178 187 203
301 299 302 302 299 285 260 238 213 212 198 195 190 183 180 177 177 177 175 178 181 183 187 187 187 186 182 180 179 180 181 181 183 186 189 191 191 192 193 192 194 196 196 199 203 205 209 206 209 212 212 212 214 212 213 221 210 173 178 179 181 189 197
302 301 304 308 310 315 263 209 207 206 202 190 184 179 176 175 176 175 174 177 181 187 190 187 181 178 176 176 179 179 182 183 184 187 189 189 190 190 192 194 198 197 195 199 200 203 207 208 210 212 214 215 213 218 216 215 220 178 178 179 182 190 197
313 314 305 309 311 292 266 227 213 209 198 182 179 179 177 175 174 173 172 178 186 189 184 176 174 174 172 175 180 181 183 186 185 188 189 188 187 190 194 195 196 195 195 199 199 202 203 206 211 214 215 217 216 220 220 211 205 193 180 181 185 187 199
316 326 324 315 322 316 283 232 212 207 194 180 180 179 177 175 172 172 172 183 186 178 173 173 171 169 171 174 179 182 185 185 182 183 188 189 189 190 191 190 193 194 195 197 200 200 203 204 208 213 218 218 217 220 218 221 201 198 175 186 185 191 197
322 331 341 337 328 332 339 288 216 207 193 180 181 178 177 176 173 173 177 182 171 171 169 169 170 169 170 174 178 181 182 184 184 185 188 187 187 189 190 190 191 192 193 195 198 198 202 211 213 215 219 219 222 221 224 222 229 193 175 180 192 192 197
314 325 338 354 343 342 7 343 268 208 185 181 183 182 180 181 179 177 178 170 165 169 170 170 170 170 173 175 177 179 181 182 184 187 189 187 186 187 189 191 189 193 200 201 206 206 207 209 212 221 223 226 227 226 225 227 225 222 177 177 188 195 197
333 337 343 9 7 9 23 70 211 165 154 171 178 180 182 185 185 178 171 166 168 169 169 170 170 172 174 176 178 180 182 184 187 188 189 188 189 190 191 191 192 195 195 201 209 212 215 216 218 218 219 222 223 224 225 221 225 224 180 180 183 193 196
337 342 341 359 17 20 25 359 163 185 168 147 168 177 175 181 180 173 164 168 170 171 169 170 168 169 173 177 179 180 185 187 189 188 188 190 189 191 193 192 194 194 194 197 200 204 207 211 213 216 215 218 220 220 221 221 217 219 207 167 180 188 187
335 344 350 348 17 28 27 24 35 126 157 140 115 145 163 163 169 168 169 166 167 168 168 170 170 173 176 178 180 183 186 190 185 187 189 191 193 194 195 198 199 198 198 199 200 200 201 205 208 211 213 216 216 218 219 219 219 211 215 192 180 192 189
343 348 349 355 2 15 20 20 43 63 97 106 112 107 131 146 158 168 168 165 168 168 171 174 171 178 178 181 184 187 186 190 190 194 196 191 196 200 200 203 203 201 204 205 203 201 199 201 205 206 211 214 212 214 219 220 219 215 193 217 204 179 189
345 347 359 358 360 5 18 34 34 38 49 75 96 118 122 126 139 168 167 161 174 175 176 173 173 180 181 185 187 189 186 192 192 195 197 195 192 196 160 41 46 24 212 205 197 199 213 207 206 208 215 215 214 215 223 225 229 189 174 158 136 157 186
342 338 350 3 6 7 0 17 32 38 35 39 60 82 90 91 93 109 149 179 188 190 183 180 178 184 187 187 192 190 188 189 192 191 195 199 193 197 177 162 98 52 41 34 25 8 224 260 13 19 27 29 230 194 76 86 90 114 135 141 156 170 165
343 344 358 5 10 6 1 4 24 24 31 34 40 55 63 67 60 60 111 169 196 196 195 188 186 192 196 192 194 184 188 192 192 189 191 196 196 197 196 189 177 145 44 42 45 50 52 48 41 29 26 39 46 37 159 88 79 104 134 145 138 132 125